User: anonymous   Login
Location: Unspecified
(0.0000°N, 0.0000°E)
Time: 12:42:55
(UTC+00:00)
Language:

ISS - Orbit

View from above orbital plane
View from above orbital plane
View from above satellite
View from above satellite

Ground track
Ground track

The orbit data is extracted from the following two-line orbital elements,

1 25544U 98067A   15061.00329596  .00013725  00000-0  20780-3 0  9995
2 25544 051.6457 259.3732 0007864 063.2699 094.7821 15.54945907931352
Epoch (UTC): 02 March 2015 00:04:44
Eccentricity: 0.0007864
inclination: 51.6457°
perigee height: 397 km
apogee height: 407 km
right ascension of ascending node: 259.3732°
argument of perigee: 63.2699°
revolutions per day: 15.54945907
mean anomaly at epoch: 94.7821°
orbit number at epoch: 93135

The dashed part of the orbit path shows where the satellite is in the earth's shadow,  

DLR